Time,TemperatureF,DewpointF,PressureIn,WindDirection,WindDirectionDegrees,WindSpeedMPH,WindSpeedGustMPH,Humidity,HourlyPrecipIn,Conditions,Clouds,dailyrainin,SoftwareType,DateUTC
2013-01-13 00:00:00,25.7,19.8,30.06,NNW,347,0.0,1.0,78,0.00,BKN,,0.00,WeatherDisplay:10.37,2013-01-12 23:00:00,
2013-01-13 00:10:00,25.9,20.0,30.06,NE,38,2.0,3.0,78,0.00,OVC,,0.00,WeatherDisplay:10.37,2013-01-12 23:10:00,
2013-01-13 00:20:00,25.9,20.0,30.06,ESE,112,0.0,3.0,78,0.00,BKN,,0.00,WeatherDisplay:10.37,2013-01-12 23:20:00,
2013-01-13 00:30:00,26.2,20.0,30.06,NNW,348,0.0,0.0,77,0.00,BKN,,0.00,WeatherDisplay:10.37,2013-01-12 23:30:00,
2013-01-13 00:40:00,26.2,20.3,30.06,NE,53,2.0,2.0,78,0.00,BKN,,0.00,WeatherDisplay:10.37,2013-01-12 23:40:00,
2013-01-13 00:50:00,26.4,20.5,30.06,West,272,1.0,2.0,78,0.00,BKN,,0.00,WeatherDisplay:10.37,2013-01-12 23:50:00,
2013-01-13 01:00:00,26.8,20.8,30.06,West,277,0.0,1.0,78,0.00,BKN,,0.00,WeatherDisplay:10.37,2013-01-13 00:00:00,
2013-01-13 01:10:00,26.8,20.8,30.06,WNW,301,0.0,1.0,78,0.00,BKN,,0.00,WeatherDisplay:10.37,2013-01-13 00:10:00,
2013-01-13 01:20:00,27.1,20.9,30.06,WNW,298,0.0,0.0,77,0.00,BKN,,0.00,WeatherDisplay:10.37,2013-01-13 00:20:00,
2013-01-13 01:30:00,27.1,20.9,30.06,WNW,292,2.0,3.0,77,0.00,OVC,,0.00,WeatherDisplay:10.37,2013-01-13 00:30:00,
2013-01-13 01:40:00,27.1,20.9,30.06,WNW,298,1.0,3.0,77,0.00,OVC,,0.00,WeatherDisplay:10.37,2013-01-13 00:40:00,
2013-01-13 01:50:00,27.3,21.1,30.06,WNW,292,3.0,4.0,77,0.00,OVC,,0.00,WeatherDisplay:10.37,2013-01-13 00:50:00,
2013-01-13 02:00:00,27.3,21.1,30.06,NW,306,2.0,4.0,77,0.00,BKN,,0.00,WeatherDisplay:10.37,2013-01-13 01:00:00,
2013-01-13 02:10:00,27.3,21.4,30.06,WNW,296,0.0,2.0,78,0.00,BKN,,0.00,WeatherDisplay:10.37,2013-01-13 01:10:00,
2013-01-13 02:20:00,27.3,21.4,30.06,WNW,302,3.0,3.0,78,0.00,BKN,,0.00,WeatherDisplay:10.37,2013-01-13 01:20:00,
2013-01-13 02:30:00,27.5,21.5,30.06,WNW,301,0.0,3.0,78,0.00,BKN,,0.00,WeatherDisplay:10.37,2013-01-13 01:30:00,
2013-01-13 02:41:00,27.3,21.4,30.06,WNW,292,0.0,0.0,78,0.00,BKN,,0.00,WeatherDisplay:10.37,2013-01-13 01:41:00,
2013-01-13 02:50:00,27.3,21.4,30.06,WNW,292,0.0,0.0,78,0.00,-SN,,0.00,WeatherDisplay:10.37,2013-01-13 01:50:00,
2013-01-13 03:00:00,27.3,21.4,30.06,WNW,292,0.0,0.0,78,0.00,-SN,,0.00,WeatherDisplay:10.37,2013-01-13 02:00:00,
2013-01-13 03:10:00,27.5,21.8,30.06,SE,130,1.0,1.0,79,0.00,-SN,,0.00,WeatherDisplay:10.37,2013-01-13 02:10:00,
2013-01-13 03:20:00,27.5,21.8,30.06,SE,135,0.0,1.0,79,0.00,-SN,,0.00,WeatherDisplay:10.37,2013-01-13 02:20:00,
2013-01-13 03:30:00,27.3,21.7,30.05,NW,315,0.0,0.0,79,0.00,-SN,,0.00,WeatherDisplay:10.37,2013-01-13 02:30:00,
2013-01-13 03:40:00,27.3,21.7,30.05,ESE,105,0.0,0.0,79,0.00,-SN,,0.00,WeatherDisplay:10.37,2013-01-13 02:40:00,
2013-01-13 03:50:00,27.3,21.7,30.05,NW,322,0.0,0.0,79,0.00,-SN,,0.00,WeatherDisplay:10.37,2013-01-13 02:50:00,
2013-01-13 04:00:00,27.3,22.0,30.05,NW,315,1.0,1.0,80,0.00,-SN,,0.00,WeatherDisplay:10.37,2013-01-13 03:00:00,
2013-01-13 04:10:00,27.3,22.0,30.05,WNW,288,1.0,3.0,80,0.00,-SN,,0.00,WeatherDisplay:10.37,2013-01-13 03:10:00,
2013-01-13 04:20:00,27.3,22.0,30.04,East,98,0.0,1.0,80,0.00,-SN,,0.00,WeatherDisplay:10.37,2013-01-13 03:20:00,
2013-01-13 04:30:00,27.3,22.0,30.04,East,86,0.0,0.0,80,0.00,-SN,,0.00,WeatherDisplay:10.37,2013-01-13 03:30:00,
2013-01-13 04:40:00,27.5,22.4,30.04,East,90,0.0,0.0,81,0.00,-SN,,0.00,WeatherDisplay:10.37,2013-01-13 03:40:00,
2013-01-13 04:50:00,27.7,22.6,30.04,NE,34,0.0,0.0,81,0.00,-SN,,0.00,WeatherDisplay:10.37,2013-01-13 03:50:00,
2013-01-13 05:00:00,27.9,22.8,30.04,NW,306,0.0,0.0,81,0.00,BKN,,0.00,WeatherDisplay:10.37,2013-01-13 04:00:00,
2013-01-13 05:10:00,28.0,23.0,30.04,WNW,292,0.0,0.0,81,0.00,BKN,,0.00,WeatherDisplay:10.37,2013-01-13 04:10:00,
2013-01-13 05:20:00,28.0,23.0,30.04,WNW,292,0.0,0.0,81,0.00,BKN,,0.00,WeatherDisplay:10.37,2013-01-13 04:20:00,
2013-01-13 05:30:00,28.0,23.0,30.04,WNW,292,0.0,0.0,81,0.00,OVC,,0.00,WeatherDisplay:10.37,2013-01-13 04:30:00,
2013-01-13 05:40:00,28.0,22.7,30.04,WNW,292,0.0,0.0,80,0.00,OVC,,0.00,WeatherDisplay:10.37,2013-01-13 04:40:00,
2013-01-13 05:50:00,28.2,22.8,30.04,WNW,292,0.0,0.0,80,0.00,OVC,,0.00,WeatherDisplay:10.37,2013-01-13 04:50:00,
2013-01-13 06:00:00,28.2,22.8,30.04,WNW,292,0.0,0.0,80,0.00,OVC,,0.00,WeatherDisplay:10.37,2013-01-13 05:00:00,
2013-01-13 06:10:00,28.2,22.8,30.04,WNW,292,0.0,0.0,80,0.00,OVC,,0.00,WeatherDisplay:10.37,2013-01-13 05:10:00,
2013-01-13 06:30:00,28.4,23.0,30.04,NW,315,1.0,1.0,80,0.00,OVC,,0.00,WeatherDisplay:10.37,2013-01-13 05:30:00,
2013-01-13 06:40:00,28.6,23.2,30.05,NW,315,0.0,1.0,80,0.00,OVC,,0.00,WeatherDisplay:10.37,2013-01-13 05:40:00,
2013-01-13 06:50:00,28.6,23.2,30.05,NW,315,0.0,0.0,80,0.00,OVC,,0.00,WeatherDisplay:10.37,2013-01-13 05:50:00,
2013-01-13 07:00:00,28.6,23.2,30.05,NW,315,0.0,0.0,80,0.00,OVC,,0.00,WeatherDisplay:10.37,2013-01-13 06:00:00,
2013-01-13 07:10:00,28.6,23.2,30.05,NW,315,0.0,0.0,80,0.00,-SN,,0.00,WeatherDisplay:10.37,2013-01-13 06:10:00,
2013-01-13 07:20:00,28.6,23.2,30.06,NW,308,0.0,0.0,80,0.00,-SN,,0.00,WeatherDisplay:10.37,2013-01-13 06:20:00,
2013-01-13 07:30:00,28.6,23.5,30.06,WNW,292,0.0,0.0,81,0.00,-SN,,0.00,WeatherDisplay:10.37,2013-01-13 06:30:00,
2013-01-13 07:40:00,28.6,23.5,30.06,WNW,303,0.0,0.0,81,0.00,-SN,,0.00,WeatherDisplay:10.37,2013-01-13 06:40:00,
2013-01-13 07:50:00,28.6,23.5,30.06,WNW,302,0.0,0.0,81,0.00,-SN,,0.00,WeatherDisplay:10.37,2013-01-13 06:50:00,
2013-01-13 08:00:00,28.6,23.5,30.06,NW,315,0.0,9.0,81,0.00,-SN,,0.00,WeatherDisplay:10.37,2013-01-13 07:00:00,
2013-01-13 08:10:00,28.6,23.5,30.06,NW,315,0.0,2.0,81,0.00,-SN,,0.00,WeatherDisplay:10.37,2013-01-13 07:10:00,
2013-01-13 08:20:00,28.4,23.6,30.06,NW,315,0.0,0.0,82,0.00,-SN,,0.00,WeatherDisplay:10.37,2013-01-13 07:20:00,
2013-01-13 08:41:00,28.4,23.6,30.07,NW,315,0.0,0.0,82,0.00,-SN,,0.00,WeatherDisplay:10.37,2013-01-13 07:41:00,
2013-01-13 08:50:00,28.4,23.6,30.07,NW,315,0.0,0.0,82,0.00,-SN,,0.00,WeatherDisplay:10.37,2013-01-13 07:50:00,
2013-01-13 09:00:00,28.6,23.8,30.07,NW,315,0.0,0.0,82,0.00,-SN,,0.00,WeatherDisplay:10.37,2013-01-13 08:00:00,
2013-01-13 09:10:00,28.6,23.8,30.06,NW,315,0.0,0.0,82,0.00,-SN,,0.00,WeatherDisplay:10.37,2013-01-13 08:10:00,
2013-01-13 09:20:00,28.6,23.8,30.07,NW,315,0.0,0.0,82,0.00,-SN,,0.00,WeatherDisplay:10.37,2013-01-13 08:20:00,
2013-01-13 09:51:00,28.6,24.1,30.07,WNW,297,0.0,1.0,83,0.00,BKN,,0.00,WeatherDisplay:10.37,2013-01-13 08:51:00,
2013-01-13 10:01:00,28.8,24.2,30.07,NW,315,0.0,0.0,83,0.00,BKN,,0.00,WeatherDisplay:10.37,2013-01-13 09:01:00,
2013-01-13 10:21:00,28.9,23.8,30.07,NW,315,0.0,0.0,81,0.00,BKN,,0.00,WeatherDisplay:10.37,2013-01-13 09:21:00,
2013-01-13 10:30:00,29.3,23.9,30.07,NW,315,0.0,0.0,80,0.00,BKN,,0.00,WeatherDisplay:10.37,2013-01-13 09:30:00,
2013-01-13 10:40:00,29.5,22.8,30.07,NW,315,0.0,0.0,76,0.00,BKN,,0.00,WeatherDisplay:10.37,2013-01-13 09:40:00,
2013-01-13 10:50:00,29.5,22.5,30.07,NW,309,0.0,0.0,75,0.00,BKN,,0.00,WeatherDisplay:10.37,2013-01-13 09:50:00,
2013-01-13 11:00:00,29.8,22.6,30.07,ESE,112,0.0,0.0,74,0.00,BKN,,0.00,WeatherDisplay:10.37,2013-01-13 10:00:00,
2013-01-13 11:10:00,29.8,22.6,30.07,East,97,0.0,0.0,74,0.00,BKN,,0.00,WeatherDisplay:10.37,2013-01-13 10:10:00,
2013-01-13 11:20:00,29.8,21.9,30.07,NNE,33,0.0,0.0,72,0.00,BKN,,0.00,WeatherDisplay:10.37,2013-01-13 10:20:00,
2013-01-13 11:30:00,29.5,21.2,30.07,WNW,297,0.0,0.0,71,0.00,BKN,,0.00,WeatherDisplay:10.37,2013-01-13 10:30:00,
2013-01-13 11:40:00,29.5,20.9,30.07,WNW,292,0.0,0.0,70,0.00,BKN,,0.00,WeatherDisplay:10.37,2013-01-13 10:40:00,
2013-01-13 11:50:00,29.8,21.2,30.07,WNW,292,0.0,0.0,70,0.00,BKN,,0.00,WeatherDisplay:10.37,2013-01-13 10:50:00,
2013-01-13 12:00:00,29.8,21.2,30.06,WNW,292,0.0,0.0,70,0.00,BKN,,0.00,WeatherDisplay:10.37,2013-01-13 11:00:00,
2013-01-13 12:20:00,30.0,21.4,30.06,SE,128,0.0,0.0,70,0.00,BKN,,0.00,WeatherDisplay:10.37,2013-01-13 11:20:00,
2013-01-13 12:40:00,30.0,21.1,30.06,SSW,196,0.0,0.0,69,0.00,BKN,,0.00,WeatherDisplay:10.37,2013-01-13 11:40:00,
2013-01-13 12:50:00,30.7,22.1,30.05,West,274,0.0,0.0,70,0.00,BKN,,0.00,WeatherDisplay:10.37,2013-01-13 11:50:00,
2013-01-13 13:00:00,30.0,21.4,30.05,ENE,77,1.0,2.0,70,0.00,BKN,,0.00,WeatherDisplay:10.37,2013-01-13 12:00:00,
2013-01-13 13:10:00,30.6,21.9,30.05,SSW,211,0.0,1.0,70,0.00,BKN,,0.00,WeatherDisplay:10.37,2013-01-13 12:10:00,
2013-01-13 13:20:00,30.6,21.6,30.05,SE,135,1.0,1.0,69,0.00,BKN,,0.00,WeatherDisplay:10.37,2013-01-13 12:20:00,
2013-01-13 13:31:00,30.4,22.1,30.05,SSW,206,0.0,2.0,71,0.00,BKN,,0.00,WeatherDisplay:10.37,2013-01-13 12:31:00,
2013-01-13 13:40:00,30.0,21.8,30.05,WNW,303,1.0,1.0,71,0.00,BKN,,0.00,WeatherDisplay:10.37,2013-01-13 12:40:00,
2013-01-13 13:50:00,30.0,21.8,30.05,NW,312,1.0,1.0,71,0.00,BKN,,0.00,WeatherDisplay:10.37,2013-01-13 12:50:00,
2013-01-13 14:00:00,30.4,22.1,30.05,WNW,303,0.0,0.0,71,0.00,BKN,,0.00,WeatherDisplay:10.37,2013-01-13 13:00:00,
2013-01-13 14:10:00,31.1,22.8,30.05,WNW,301,1.0,2.0,71,0.00,BKN,,0.00,WeatherDisplay:10.37,2013-01-13 13:10:00,
2013-01-13 14:20:00,30.7,22.4,30.05,WNW,292,1.0,2.0,71,0.00,BKN,,0.00,WeatherDisplay:10.37,2013-01-13 13:20:00,
2013-01-13 14:30:00,30.7,22.4,30.05,WNW,292,2.0,2.0,71,0.00,BKN,,0.00,WeatherDisplay:10.37,2013-01-13 13:30:00,
2013-01-13 14:41:00,30.6,22.3,30.05,North,2,1.0,1.0,71,0.00,BKN,,0.00,WeatherDisplay:10.37,2013-01-13 13:41:00,
2013-01-13 14:50:00,30.9,22.3,30.06,WNW,292,0.0,1.0,70,0.00,BKN,,0.00,WeatherDisplay:10.37,2013-01-13 13:50:00,
2013-01-13 15:00:00,30.7,21.8,30.06,WNW,291,1.0,1.0,69,0.00,BKN,,0.00,WeatherDisplay:10.37,2013-01-13 14:00:00,
2013-01-13 15:10:00,30.7,21.8,30.05,WNW,284,0.0,1.0,69,0.00,BKN,,0.00,WeatherDisplay:10.37,2013-01-13 14:10:00,
2013-01-13 15:20:00,30.9,21.9,30.05,NW,310,0.0,0.0,69,0.00,BKN,,0.00,WeatherDisplay:10.37,2013-01-13 14:20:00,
2013-01-13 15:30:00,30.2,21.6,30.05,WNW,303,0.0,0.0,70,0.00,BKN,,0.00,WeatherDisplay:10.37,2013-01-13 14:30:00,
2013-01-13 15:40:00,29.5,21.6,30.06,South,188,0.0,1.0,72,0.00,BKN,,0.00,WeatherDisplay:10.37,2013-01-13 14:40:00,
2013-01-13 15:50:00,28.9,21.7,30.06,SE,135,0.0,0.0,74,0.00,BKN,,0.00,WeatherDisplay:10.37,2013-01-13 14:50:00,
2013-01-13 16:00:00,28.9,22.3,30.06,SSW,202,0.0,0.0,76,0.00,BKN,,0.00,WeatherDisplay:10.37,2013-01-13 15:00:00,
2013-01-13 16:10:00,28.6,22.3,30.06,ESE,112,0.0,0.0,77,0.00,BKN,,0.00,WeatherDisplay:10.37,2013-01-13 15:10:00,
2013-01-13 16:20:00,28.4,22.4,30.06,NW,312,0.0,0.0,78,0.00,BKN,,0.00,WeatherDisplay:10.37,2013-01-13 15:20:00,
2013-01-13 16:30:00,28.2,22.2,30.06,WNW,293,0.0,1.0,78,0.00,BKN,,0.00,WeatherDisplay:10.37,2013-01-13 15:30:00,
2013-01-13 16:40:00,28.2,22.2,30.06,WNW,292,0.0,0.0,78,0.00,BKN,,0.00,WeatherDisplay:10.37,2013-01-13 15:40:00,
2013-01-13 16:50:00,28.4,22.4,30.06,WNW,292,0.0,0.0,78,0.00,BKN,,0.00,WeatherDisplay:10.37,2013-01-13 15:50:00,
2013-01-13 17:00:00,28.4,22.4,30.06,WNW,292,1.0,2.0,78,0.00,BKN,,0.00,WeatherDisplay:10.37,2013-01-13 16:00:00,
2013-01-13 17:10:00,28.6,22.3,30.06,WNW,292,0.0,0.0,77,0.00,BKN,,0.00,WeatherDisplay:10.37,2013-01-13 16:10:00,
2013-01-13 17:20:00,28.4,22.1,30.06,WNW,283,2.0,2.0,77,0.00,BKN,,0.00,WeatherDisplay:10.37,2013-01-13 16:20:00,
2013-01-13 17:30:00,28.4,22.1,30.06,WNW,292,2.0,2.0,77,0.00,BKN,,0.00,WeatherDisplay:10.37,2013-01-13 16:30:00,
2013-01-13 17:40:00,28.4,22.1,30.06,WNW,285,0.0,2.0,77,0.00,BKN,,0.00,WeatherDisplay:10.37,2013-01-13 16:40:00,
2013-01-13 17:50:00,28.2,21.9,30.06,ESE,112,0.0,0.0,77,0.00,BKN,,0.00,WeatherDisplay:10.37,2013-01-13 16:50:00,
2013-01-13 18:00:00,28.2,21.9,30.06,WNW,292,2.0,2.0,77,0.00,BKN,,0.00,WeatherDisplay:10.37,2013-01-13 17:00:00,
2013-01-13 18:10:00,28.0,22.1,30.06,WNW,292,0.0,2.0,78,0.00,BKN,,0.00,WeatherDisplay:10.37,2013-01-13 17:10:00,
2013-01-13 18:21:00,28.2,22.2,30.06,West,281,1.0,1.0,78,0.00,BKN,,0.00,WeatherDisplay:10.37,2013-01-13 17:21:00,
2013-01-13 18:30:00,28.0,21.8,30.06,WNW,292,0.0,0.0,77,0.00,BKN,,0.00,WeatherDisplay:10.37,2013-01-13 17:30:00,
2013-01-13 18:40:00,28.0,21.8,30.06,WNW,292,2.0,2.0,77,0.00,BKN,,0.00,WeatherDisplay:10.37,2013-01-13 17:40:00,
2013-01-13 18:50:00,28.0,21.4,30.06,NW,315,1.0,1.0,76,0.00,BKN,,0.00,WeatherDisplay:10.37,2013-01-13 17:50:00,
2013-01-13 19:00:00,28.0,21.1,30.06,WNW,294,1.0,2.0,75,0.00,BKN,,0.00,WeatherDisplay:10.37,2013-01-13 18:00:00,
2013-01-13 19:10:00,28.0,20.8,30.06,WNW,292,1.0,1.0,74,0.00,BKN,,0.00,WeatherDisplay:10.37,2013-01-13 18:10:00,
2013-01-13 19:20:00,28.2,20.7,30.06,WNW,292,2.0,2.0,73,0.00,BKN,,0.00,WeatherDisplay:10.37,2013-01-13 18:20:00,
2013-01-13 19:30:00,28.0,20.8,30.06,WNW,292,1.0,2.0,74,0.00,BKN,,0.00,WeatherDisplay:10.37,2013-01-13 18:30:00,
2013-01-13 19:40:00,28.0,20.8,30.06,WNW,292,2.0,2.0,74,0.00,BKN,,0.00,WeatherDisplay:10.37,2013-01-13 18:40:00,
2013-01-13 19:50:00,28.0,21.1,30.06,WNW,292,2.0,2.0,75,0.00,BKN,,0.00,WeatherDisplay:10.37,2013-01-13 18:50:00,
2013-01-13 20:00:00,28.0,21.4,30.06,WNW,292,0.0,2.0,76,0.00,BKN,,0.00,WeatherDisplay:10.37,2013-01-13 19:00:00,
2013-01-13 20:10:00,28.0,21.8,30.05,WNW,292,1.0,1.0,77,0.00,BKN,,0.00,WeatherDisplay:10.37,2013-01-13 19:10:00,
2013-01-13 20:20:00,27.9,21.6,30.05,WNW,292,0.0,0.0,77,0.00,BKN,,0.00,WeatherDisplay:10.37,2013-01-13 19:20:00,
2013-01-13 20:30:00,27.7,21.4,30.05,NW,306,1.0,2.0,77,0.00,BKN,,0.00,WeatherDisplay:10.37,2013-01-13 19:30:00,
2013-01-13 20:40:00,27.7,21.7,30.05,WNW,292,2.0,3.0,78,0.00,BKN,,0.00,WeatherDisplay:10.37,2013-01-13 19:40:00,
2013-01-13 20:50:00,27.7,21.7,30.05,WNW,292,0.0,1.0,78,0.00,BKN,,0.00,WeatherDisplay:10.37,2013-01-13 19:50:00,
2013-01-13 21:00:00,27.5,21.8,30.05,WNW,303,0.0,0.0,79,0.00,OVC,,0.00,WeatherDisplay:10.37,2013-01-13 20:00:00,
2013-01-13 21:10:00,27.5,21.8,30.05,NW,307,1.0,1.0,79,0.00,OVC,,0.00,WeatherDisplay:10.37,2013-01-13 20:10:00,
2013-01-13 21:20:00,27.5,21.8,30.05,WNW,292,0.0,0.0,79,0.00,OVC,,0.00,WeatherDisplay:10.37,2013-01-13 20:20:00,
2013-01-13 21:30:00,27.3,21.7,30.06,WNW,292,0.0,2.0,79,0.00,-SN,,0.00,WeatherDisplay:10.37,2013-01-13 20:30:00,
2013-01-13 21:40:00,27.3,21.7,30.06,WNW,292,0.0,0.0,79,0.00,-SN,,0.00,WeatherDisplay:10.37,2013-01-13 20:40:00,
2013-01-13 21:50:00,27.3,21.7,30.06,WNW,292,1.0,2.0,79,0.00,-SN,,0.00,WeatherDisplay:10.37,2013-01-13 20:50:00,
2013-01-13 22:00:00,27.3,21.7,30.05,NW,305,1.0,1.0,79,0.00,-SN,,0.00,WeatherDisplay:10.37,2013-01-13 21:00:00,
2013-01-13 22:10:00,27.3,21.7,30.05,WNW,292,0.0,0.0,79,0.00,-SN,,0.00,WeatherDisplay:10.37,2013-01-13 21:10:00,
2013-01-13 22:20:00,27.3,21.7,30.05,NNW,338,1.0,1.0,79,0.00,-SN,,0.00,WeatherDisplay:10.37,2013-01-13 21:20:00,
2013-01-13 22:31:00,27.3,21.7,30.05,NW,315,0.0,1.0,79,0.00,-SN,,0.00,WeatherDisplay:10.37,2013-01-13 21:31:00,
2013-01-13 22:40:00,27.3,21.7,30.05,SSW,202,0.0,0.0,79,0.00,-SN,,0.00,WeatherDisplay:10.37,2013-01-13 21:40:00,
2013-01-13 22:50:00,27.3,21.7,30.05,WNW,292,1.0,1.0,79,0.00,-SN,,0.00,WeatherDisplay:10.37,2013-01-13 21:50:00,
2013-01-13 23:00:00,27.3,21.7,30.05,NW,315,0.0,0.0,79,0.00,-SN,,0.00,WeatherDisplay:10.37,2013-01-13 22:00:00,
2013-01-13 23:10:00,27.3,21.7,30.05,WNW,292,0.0,0.0,79,0.00,-SN,,0.00,WeatherDisplay:10.37,2013-01-13 22:10:00,
2013-01-13 23:20:00,27.1,21.5,30.05,WNW,292,0.0,2.0,79,0.00,-SN,,0.00,WeatherDisplay:10.37,2013-01-13 22:20:00,
2013-01-13 23:30:00,27.1,21.5,30.04,WNW,301,2.0,2.0,79,0.00,-SN,,0.00,WeatherDisplay:10.37,2013-01-13 22:30:00,
2013-01-13 23:40:00,27.1,21.5,30.04,WNW,292,0.0,0.0,79,0.00,-SN,,0.00,WeatherDisplay:10.37,2013-01-13 22:40:00,
2013-01-13 23:50:00,27.1,21.5,30.04,WNW,292,0.0,0.0,79,0.00,-SN,,0.00,WeatherDisplay:10.37,2013-01-13 22:50:00,